Hourly Weather Roundup
Issued by NWS Central Illinois

Home | Current Version | Previous Version | Text Only | Print | Product List | Glossary On
Versions: 1 2 3 4 5 6 7 8 9 10 11 12 13 14 15 16 17 18 19 20 21 22 23 24 25 26 27 28 29 30 31 32 33 34 35 36 37 38 39 40 41 42 43 44 45 46 47 48 49 50
000
NZUS43 KILX 030710
HWRILX

AREA WEATHER ROUNDUP
NATIONAL WEATHER SERVICE, LINCOLN IL
200 AM CDT THU SEP 03 2015


CITY           SKY/WX    TMP DP  RH WIND       PRES   REMARKS
BLOOMINGTON    CLEAR     72  69  90 SW6       30.01S
CHAMPAIGN      CLEAR     70  67  90 S6        30.00F
DANVILLE       PTCLDY    69  68  98 CALM      29.98S FOG
DECATUR        CLEAR     72  65  78 CALM      30.00F
EFFINGHAM      CLEAR     69  66  90 CALM      30.02S
FLORA          CLEAR     67  65  94 CALM      30.01F
GALESBURG      PTCLDY    72  68  88 S5        29.96F
JACKSONVILLE   CLEAR     74  69  81 S5        29.98S
LACON          PTCLDY    72  67  82 S3        29.96S
LAWRENCEVILLE  CLEAR     68  67  96 S5        30.00F FOG
LITCHFIELD     CLEAR     70  67  90 S5        30.00F
$$


CITY           SKY/WX    TMP DP  RH WIND       PRES   REMARKS
LINCOLN        CLEAR     70  66  86 CALM      29.98F
MACOMB         PTCLDY    70  68  91 S3        29.99F
MATTOON        CLEAR     74  67  78 SW5       30.00S
MT CARMEL AP   CLEAR     66  64  94 CALM      30.01S FOG
OLNEY-NOBLE AP CLEAR     68  66  94 CALM      30.01S FOG
PARIS          CLEAR     67  66  97 CALM      30.01F
PEORIA         MOCLDY    76  66  71 CALM      29.98S
PONTIAC        PTCLDY    73  69  88 S3        29.99S
RANTOUL        PTCLDY    74  69  85 SW6       29.99F
ROBINSON       CLEAR     66  65  96 CALM      30.01F FOG
SPRINGFIELD    CLEAR     72  68  87 S5        29.99F
TAYLORVILLE    CLEAR     70  68  94 S5        30.00S
$$

...REGIONAL REPORTS...


CITY           SKY/WX    TMP DP  RH WIND       PRES   REMARKS
CHICAGO O`HARE MOCLDY    74  68  81 CALM      29.95F
KANKAKEE       PTCLDY    72  69  90 SW5       29.99F
MOLINE         FAIR      76  68  76 SW8       29.94F
MOUNT STERLING PTCLDY    71  67  88 S3        29.97F
MOUNT VERNON   CLEAR     66  63  88 CALM      30.01F
PITTSFIELD     CLEAR     74  68  82 S3        29.99F
QUINCY         PTCLDY    73  68  84 S5        29.97F
ROCKFORD       CLOUDY    74  69  85 S3        29.96F
$$


CITY           SKY/WX    TMP DP  RH WIND       PRES   REMARKS
BURLINGTON     CLOUDY    74  70  87 S6        29.95F
CEDAR RAPIDS   CLEAR     71  70  96 S7        29.93S
DES MOINES     PTCLDY    76  68  76 S9        29.90F
KIRKSVILLE     MOCLDY    74  68  81 S7        29.97F
OTTUMWA        CLEAR     72  70  93 S8        29.92F
ST LOUIS       CLEAR     79  69  71 SW5       29.99F HX  81
$$


CITY           SKY/WX    TMP DP  RH WIND       PRES   REMARKS
TERRE HAUTE    CLEAR     65  64  97 CALM      30.00F
EVANSVILLE     CLEAR     72  68  87 CALM      30.01F FOG
INDIANAPOLIS   CLEAR     71  68  90 W6        30.00F
LAFAYETTE      CLEAR     69  66  90 CALM      29.99F
MADISON        CLEAR     74  69  85 S3        29.92F
MILWAUKEE      PTCLDY    76  69  79 S10       29.92F
$$





USA.gov is the U.S. government's official web portal to all federal, state and local government web resources and services.